Tracking 28091 objects as of 30-Sep-2023
HD Live streaming from Space Station
objects crossing your sky now

EXPRESS AMU-3

Track EXPRESS AMU-3 now!


NORAD ID: 50002
Int'l Code: 2021-123B
Perigee: 35,791.4 km
Apogee: 35,794.9 km
Inclination: 0.0 °
Period: 1,436.1 minutes
Semi major axis: 42164 km
RCS: Unknown
Launch date: December 13, 2021
Source: Commonwealth of Independent States (former USSR) (CIS)
Launch site: TYURATAM MISSILE AND SPACE COMPLEX (TTMTR)
Your satellite tracking list
Your tracking list is empty




NASA's NSSDC Master Catalog

Two Line Element Set (TLE):
1 50002U 21123B   23271.69388153 -.00000336  00000-0  00000-0 0  9997
2 50002   0.0196 241.6953 0000414 106.1735  12.1430  1.00273910  6579
Source of the keplerian elements: AFSPC